C/2022 P1 ( NEOWISE )

Japanese version
Home page
Updated on April 23, 2023

---------------------------------------------------------------------

* Profile

Discovery Date August 8, 2022
Magnitude 18 mag
Discoverer Near-Earth Object Wide-field Infrared Survey Explorer

* Pictures

* Orbital Elements

Epoch 2023 Feb. 25.0 TT = JDT 2460000.5
T 2022 Nov. 28.47520 TT                                 Rudenko
q   1.5952324            (2000.0)            P               Q
n   0.01245164     Peri.  249.93534     +0.67044971     -0.71933980
a  18.4353598      Node   205.08249     -0.41145541     -0.56435681
e   0.9134689      Incl.  154.60685     -0.61741528     -0.40503290
P  79.2
>From 657 observations 2022 Aug. 8-2023 Apr. 17, mean residual 0".5.

* Finding Charts

* Magnitudes Graph

        m1 = 3.0 + 5 log d + 30 log r

---------------------------------------------------------------------

The orbital elements are published on M.P.E.C. 2023-H131.
The charts are made with StellaNavigator Ver.10 (AstroArts).
The magnitudes graphs are made with Comet for Windows.

---------------------------------------------------------------------

Copyright(C) Seiichi Yoshida (comet@aerith.net). All rights reserved.